Bull Run Run 50 Miler

Results

April 18, 1998

198 Starters

Scott Mills
RD Scott Mills--smiling!
Place First Last Age State Yr Time
1 Vassili Triantos 43 MD 98 06:55:49
2 Joe Schlereth 48 NC 98 07:16:39
3 Andy Peterson 41 VA 98 07:21:47
4 Moe Pratt 35 MA 98 07:26:22
5 Derrick Carr 36 VA 98 07:26:56
6 Robin Kane 35 VA 98 07:26:56
7 TJ Hawk 40 OH 98 07:28:07
8 Franklin Lum 33 MD 98 07:36:30
9 Jeff Hinte 42 MD 98 07:38:02
10 Mark Marcelli 39 PA 98 07:45:12
11 Tim Stanley 42 VA 98 07:58:23
12 Richard Freeman 39 PA 98 08:11:23
13 David Feinauer 44 PA 98 08:14:36
14 Frank Probst 55 VA 98 08:15:05
15 Mark Leuschner 34 NH 98 08:15:05
16 Joe Clapper 39 VA 98 08:19:02
17 Gary Stefanisko 43 DE 98 08:26:31
18 Barry Capelli 50 VA 98 08:34:29
19 John Demorest 47 CA 98 08:37:00
20 Ron Shaw 45 Md 98 08:47:40
21 Gail Ierardi 31F MA 98 08:47:46
22 Mark Evans 42 OH 98 08:48:32
23 Courtney Fenstermacher 27F PA 98 08:52:25
24 Michael Yoder 36 PA 98 08:52:26
25 Tom Green 46 MD 98 08:52:27
26 Jim Barry 53 MA 98 08:54:30
27 Regis Shivers 27 OH 98 08:54:59
28 Charles Trayer 43 PA 98 08:56:32
29 Mike Weber 42 VA 98 08:57:48
30 Luke Lucas 50 NC 98 08:59:31
31 King Jordan 54 DC 98 09:00:16
32 Michelle Kane 35F VA 98 09:00:17
33 Ted Massa 41 PA 98 09:01:23
34 Jess Lopez 31 NY 98 09:01:32
35 Mark Rosasco 39 MD 98 09:01:50
36 Mark Mills 43 NH 98 09:05:12
37 Harry Smith 49 PA 98 09:06:02
38 Ralph Higt 60 CA 98 09:06:14
39 Lawrence Severt 31 VA 98 09:09:57
40 Michael Kennedy 42 NC 98 09:10:32
41 Marty McMahon 47 MA 98 09:16:44
42 Amy Culp 36F PA 98 09:19:58
43 John Weitzel 46 PA 98 09:21:52
44 John Medinger 47 CA 98 09:23:19
45 Debbie Berner 32F PA 98 09:31:46
46 Paul Raymond 43 CN 98 09:33:45
47 Mike Monyak 39 VA 98 09:34:08
48 John Carrier 45 VA 98 09:34:10
49 Chris Frey 32 NJ 98 09:34:36
50 Rich Leboeuf 40 MA 98 09:35:01
51 Steve Burrows 46 CN 98 09:33:46
52 Kevin Swan 24 OH 98 09:36:25
53 Nick Palazzo 30 NY 98 09:37:16
54 Don Villeneuve 58 NY 98 09:37:26
55 David Halbleib 57 PA 98 09:40:17
56 Roger Allison 57 WV 98 09:45:46
57 Fred Gruhle 43 NY 98 09:45:49
58 Fred Pilon 48 MA 98 09:47:00
59 Chuck Thomas 41 VA 98 09:47:10
60 Mike Galen 44 PA 98 09:47:32
61 Colleen Dulin 29F VA 98 09:47:43
62 Eric Leeds 24 PA 98 09:48:09
63 Marc Hamas 29 OH 98 09:49:02
64 Ben Clark 40 MD 98 09:49:59
65 Bill Gentry 36 VA 98 09:49:59
66 Lynn Gannon 32F VA 98 09:50:21
67 Kyle Conley 28 VA 98 09:50:43
68 David Stuckey 32 VA 98 09:51:22
69 Lindsey Mohle 32F DC 98 09:51:51
70 Irene Weston 42F OH 98 09:54:57
71 Ken Howard 37 OH 98 09:55:39
72 Scott Rafferty 42 DC 98 09:56:01
73 John DeWalt 61 PA 98 09:57:13
74 Greg Foster 42 PA 98 10:00:30
75 David Boles 51 NY 98 10:01:08
76 Allen Montgomery 59 SC 98 10:04:06
77 Bert Meyer 52 CT 98 10:06:38
78 Leo Jones 59 MA 98 10:08:42
79 James Gilford 40 MA 98 10:08:42
80 Richard Opsahl 66 NY 98 10:09:29
81 Chuck Honeycutt 50 CA 98 10:13:35
82 Jim Bradford 34 VA 98 10:15:16
83 Gary Alexander 51 MA 98 10:16:21
84 Roger Martell 49 MA 98 10:16:21
85 Michael Talbert 39 ME 98 10:17:52
86 John Hampton 40 MD 98 10:18:03
87 Jamie Hurley 29 OH 98 10:20:23
88 John Costigan 44 VA 98 10:20:57
89 Al Schumm 40 VA 98 10:21:23
90 Milton Webb 41 WV 98 10:23:37
91 Cary Boas 31 PA 98 10:23:37
92 Chris Scott 49 CA 98 10:26:25
93 Jerry Agin 56 PA 98 10:27:42
94 Diane McNamara 44F MA 98 10:27:59
95 Tom Sprouse 56 VA 98 10:31:06
96 Paul Davis 53 CT 98 10:36:38
97 Barry Oring 45 VA 98 10:38:12
98 Lisa Conover 39F WI 98 10:38:12
99 Michael Tatarko 38 PA 98 10:40:21
100 David Hughes 52 IN 98 10:42:14
101 Andy Shea 33 VA 98 10:42:57
102 Bill Wandel 54 MD 98 10:43:20
103 Randy Snyder 49 VA 98 10:44:01
104 Patrick Raymond 47 MD 98 10:44:24
105 Rick Effer 34 VA 98 10:48:17
106 Gary Knipling 53 VA 98 10:49:19
107 Kimberly Fleming 36F MD 98 10:50:46
108 Mark Lee 34 MD 98 10:51:51
109 Mike Strzelecki 34 MD 98 10:51:51
110 Dennis Howe 54 NY 98 10:52:55
111 Peter Bruno 51 VA 98 10:54:33
112 Anna Bradford 35F VA 98 10:54:33
113 Ron McKinney 51 WV 98 10:55:03
114 Wesley Fenton 37 OH 98 10:58:06
115 Rob Apple 36 OH 98 10:58:06
116 Larry Ryan 45 PA 98 11:00:16
117 Merrianne Brittain 36F VA 98 11:01:26
118 Lynn Morrow 51F PA 98 11:05:34
119 Martha Gilford 38F MA 98 11:05:48
120 Peter Frey 49 MD 98 11:15:53
121 Frank McCardell 54 PA 98 11:18:05
122 Vic Ware 62 WV 98 11:18:45
123 Linda Vallee 38F NY 98 11:19:27
124 Mitch Harper 41 IN 98 11:19:35
125 Roxanna Quinn 42F PA 98 11:21:04
126 Larry DeHof 47 MD 98 11:23:21
127 Joe Hayes 49 ME 98 11:24:18
128 Mike Franusich 45 PA 98 11:25:57
129 Bruce Blackenship 44 WV 98 11:26:31
130 Jean Boswell 53F MA 98 11:26:43
131 Joe Dietrick 42 PA 98 11:32:38
132 Gardenia Pittman 47F VA 98 11:34:35
133 David Janosko 40 OH 98 11:35:26
134 Tom Midlam 29 MD 98 11:36:20
135 Bill Piper 52 PA 98 11:40:18
136 John Prohira 43 NY 98 11:40:27
137 Andy Dukehart 40 MA 98 11:42:28
138 Paul Seltzer 46 NY 98 11:46:02
139 Phil Anderson 53 MD 98 11:47:55
140 Steve McMillan 36 VA 98 11:48:37
141 Maritza Alomar 35F VA 98 11:48:37
142 John Gerlaugh 43 VA 98 11:50:59
143 Sarah Glass 26F MD 98 11:51:14
144 Rich Lacy 58 NY 98 11:52:23
145 Bill Mack 57 OH 98 11:52:23
146 Dale Weitzel 46F PA 98 11:53:10
147 Ed Recker 45 PA 98 11:53:10
148 Daniel Quinn 41 PA 98 11:53:10
149 Denise Kelly 36F PA 98 11:53:10
150 Brent Fenstermacher 30 PA 98 11:53:10
151 Mark Duarte 37 VA 98 11:54:14
152 Marge Burley 50F MD 98 11:54:41
153 Carl McClure 51 VA 98 11:55:30
154 Lou Jones 53 VA 98 11:57:56
155 Nancy Glass 29F MD 98 11:58:30
156 Megan Hurley 25F OH 98 11:59:59
157 Gary McDowell 55 VA 98 12:03:09
158 John Sheets 53 WV 98 12:04:48
159 Scott Burgess 37 NY 98 12:07:56
160 Mike Owens 51 TN 98 12:10:43
161 Tom Zinkle 53 OH 98 12:10:47
162 Timothy Boyd 33 MD 98 12:11:35
163 Pat Honeycutt 49F CA 98 12:12:52
164 Paul Malsbury 43 VA 98 12:15:10
165 Steve Hesseltine 38 VA 98 12:15:10
166 Robert Kloss 32 DE 98 12:17:46
167 John Tempone 49 VA 98 12:31:24
168 Rodney Beard 40 DC 98 12:32:12
169 Karl Von der Heydt 53 NY 98 12:35:53
170 Eric Marx 38 MD 98 12:36:20
171 Genevieve Dolan 58F PA 98 12:37:19
172 Joseph Hurley 39 VA 98 12:38:06
173 Paul Cooper 51 NY 98 12:38:08
174 Paul Dwyer 58 VA 98 12:50:51
175 Joseph Szekeresh 59 PA 98 12:51:14
176 Marty Szekeresh 57 VA 98 12:51:14
177 Arthur Witt 45 VA 98 12:52:03
178 Carolyn Ciccone 56F NY 98 12:52:29
179 Bob Morton 41 VA 98 12:55:08
180 Joseph Malinowski 50 VA 98 13:01:56


Virginia Happy Trails Running Club
Home | News | Calendar | Membership | Members Only | Photos
Bull Run Run 50 | Massanutten Mt. Trails 100 | Training Runs | Links
Feedback